Back to catalog

STARLINK-38119

AliveCommunicationsVLEO
NORAD 100009·PAYLOAD·🇺🇸 United States

Launched Jul 14, 2026 from Vandenberg Space Force Base

Loading…

Next Passes (next 24 hours)

TLE

FreshSource: Space-Track

Epoch: Sep 14, 2026, 07:35 UTC

1 A0009U 26160J   26257.31632601  .00181531  00000-0  10649-2 0  9999
2 A0009  70.0011 212.6121 0003168 271.1926  88.8910 15.77607405 11010

Track STARLINK-38119 in real time with AllMySat

Download on the App Store